Time,TemperatureF,DewpointF,PressureIn,WindDirection,WindDirectionDegrees,WindSpeedMPH,WindSpeedGustMPH,Humidity,HourlyPrecipIn,Conditions,Clouds,dailyrainin,SoftwareType,DateUTC
2015-03-01 00:00:00,8.1,6.5,30.46,East,91,0.0,0.0,93,0.00,,---,0.00,VWS V15.00,2015-03-01 06:00:00,
2015-03-01 00:05:00,8.2,6.6,30.46,East,92,0.0,0.0,93,0.00,,---,0.00,VWS V15.00,2015-03-01 06:05:00,
2015-03-01 00:10:00,8.5,6.9,30.46,East,89,0.0,0.0,93,0.00,,---,0.00,VWS V15.00,2015-03-01 06:10:00,
2015-03-01 00:15:00,8.7,7.1,30.45,East,81,0.0,0.0,93,0.00,,---,0.00,VWS V15.00,2015-03-01 06:15:00,
2015-03-01 00:20:00,9.0,7.4,30.45,East,79,0.0,0.0,93,0.00,,---,0.00,VWS V15.00,2015-03-01 06:20:00,
2015-03-01 00:25:00,9.2,7.8,30.45,East,81,0.0,0.0,94,0.00,,---,0.00,VWS V15.00,2015-03-01 06:25:00,
2015-03-01 00:30:00,9.4,8.0,30.45,NNE,32,0.0,0.0,94,0.00,,---,0.00,VWS V15.00,2015-03-01 06:30:00,
2015-03-01 00:35:00,9.8,8.4,30.45,North,8,0.0,0.0,94,0.00,,---,0.00,VWS V15.00,2015-03-01 06:35:00,
2015-03-01 00:40:00,10.5,9.4,30.45,NE,53,0.0,1.0,95,0.00,,---,0.00,VWS V15.00,2015-03-01 06:40:00,
2015-03-01 00:45:00,10.9,9.8,30.45,SE,129,0.0,1.0,95,0.00,,---,0.00,VWS V15.00,2015-03-01 06:45:00,
2015-03-01 00:50:00,11.2,10.1,30.45,SE,128,0.0,1.0,95,0.00,,---,0.00,VWS V15.00,2015-03-01 06:50:00,
2015-03-01 00:55:00,11.1,9.7,30.45,SE,128,0.0,1.0,94,0.00,,---,0.00,VWS V15.00,2015-03-01 06:55:00,
2015-03-01 01:00:00,11.1,9.7,30.45,SE,128,0.0,1.0,94,0.00,,---,0.00,VWS V15.00,2015-03-01 07:00:00,
2015-03-01 01:05:00,11.2,9.8,30.45,NW,321,0.0,0.0,94,0.00,,---,0.00,VWS V15.00,2015-03-01 07:05:00,
2015-03-01 01:10:00,11.5,10.1,30.45,NW,321,0.0,0.0,94,0.00,,---,0.00,VWS V15.00,2015-03-01 07:10:00,
2015-03-01 01:15:00,11.7,10.6,30.45,NW,321,0.0,0.0,95,0.00,,---,0.00,VWS V15.00,2015-03-01 07:15:00,
2015-03-01 01:20:00,12.0,10.8,30.44,NW,321,0.0,0.0,95,0.00,,---,0.00,VWS V15.00,2015-03-01 07:20:00,
2015-03-01 01:25:00,12.0,10.6,30.44,NW,321,0.0,0.0,94,0.00,,---,0.00,VWS V15.00,2015-03-01 07:25:00,
2015-03-01 01:30:00,12.0,10.6,30.44,NW,321,0.0,0.0,94,0.00,,---,0.00,VWS V15.00,2015-03-01 07:30:00,
2015-03-01 01:35:00,12.1,10.7,30.44,South,188,0.0,1.0,94,0.00,,---,0.00,VWS V15.00,2015-03-01 07:35:00,
2015-03-01 01:40:00,12.2,10.8,30.44,South,190,0.0,1.0,94,0.00,,---,0.00,VWS V15.00,2015-03-01 07:40:00,
2015-03-01 01:45:00,12.1,10.7,30.44,WSW,248,0.0,1.0,94,0.00,,---,0.00,VWS V15.00,2015-03-01 07:45:00,
2015-03-01 01:50:00,12.1,10.7,30.44,West,267,0.0,1.0,94,0.00,,---,0.00,VWS V15.00,2015-03-01 07:50:00,
2015-03-01 01:55:00,12.2,10.8,30.44,West,264,0.0,1.0,94,0.00,,---,0.00,VWS V15.00,2015-03-01 07:55:00,
2015-03-01 02:00:00,12.2,10.8,30.44,WNW,283,0.0,1.0,94,0.00,,---,0.00,VWS V15.00,2015-03-01 08:00:00,
2015-03-01 02:05:00,12.4,11.0,30.44,West,267,1.0,1.0,94,0.00,,---,0.00,VWS V15.00,2015-03-01 08:05:00,
2015-03-01 02:10:00,12.4,11.0,30.44,West,271,0.0,1.0,94,0.00,,---,0.00,VWS V15.00,2015-03-01 08:10:00,
2015-03-01 02:15:00,12.5,11.1,30.44,West,261,1.0,2.0,94,0.00,,---,0.00,VWS V15.00,2015-03-01 08:15:00,
2015-03-01 02:20:00,12.5,11.1,30.44,West,263,0.0,2.0,94,0.00,,---,0.00,VWS V15.00,2015-03-01 08:20:00,
2015-03-01 02:25:00,12.5,11.1,30.44,SW,231,0.0,2.0,94,0.00,,---,0.00,VWS V15.00,2015-03-01 08:25:00,
2015-03-01 02:30:00,12.5,11.1,30.43,WSW,244,0.0,0.0,94,0.00,,---,0.00,VWS V15.00,2015-03-01 08:30:00,
2015-03-01 02:35:00,12.4,11.0,30.43,WSW,245,0.0,0.0,94,0.00,,---,0.00,VWS V15.00,2015-03-01 08:35:00,
2015-03-01 02:40:00,12.4,11.0,30.43,WSW,245,0.0,0.0,94,0.00,,---,0.00,VWS V15.00,2015-03-01 08:40:00,
2015-03-01 02:45:00,12.5,11.1,30.43,West,281,0.0,1.0,94,0.00,,---,0.00,VWS V15.00,2015-03-01 08:45:00,
2015-03-01 02:50:00,12.5,11.1,30.43,WNW,283,0.0,1.0,94,0.00,,---,0.00,VWS V15.00,2015-03-01 08:50:00,
2015-03-01 02:55:00,12.5,11.1,30.43,West,280,0.0,1.0,94,0.00,,---,0.00,VWS V15.00,2015-03-01 08:55:00,
2015-03-01 03:00:00,12.6,11.2,30.43,WSW,238,0.0,0.0,94,0.00,,---,0.00,VWS V15.00,2015-03-01 09:00:00,
2015-03-01 03:05:00,12.6,11.2,30.42,WSW,257,0.0,1.0,94,0.00,,---,0.00,VWS V15.00,2015-03-01 09:05:00,
2015-03-01 03:10:00,12.7,11.5,30.42,WSW,238,0.0,1.0,95,0.00,,---,0.00,VWS V15.00,2015-03-01 09:10:00,
2015-03-01 03:15:00,12.7,11.5,30.42,SW,221,0.0,1.0,95,0.00,,---,0.00,VWS V15.00,2015-03-01 09:15:00,
2015-03-01 03:20:00,12.8,11.6,30.41,SW,221,0.0,1.0,95,0.00,,---,0.00,VWS V15.00,2015-03-01 09:20:00,
2015-03-01 03:25:00,12.8,11.6,30.41,SW,221,0.0,1.0,95,0.00,,---,0.00,VWS V15.00,2015-03-01 09:25:00,
2015-03-01 03:30:00,12.8,11.6,30.41,SW,221,0.0,0.0,95,0.00,,---,0.00,VWS V15.00,2015-03-01 09:30:00,
2015-03-01 03:35:00,12.9,11.7,30.41,SW,220,0.0,0.0,95,0.00,,---,0.00,VWS V15.00,2015-03-01 09:35:00,
2015-03-01 03:40:00,12.9,11.7,30.41,SW,221,0.0,0.0,95,0.00,,---,0.00,VWS V15.00,2015-03-01 09:40:00,
2015-03-01 03:45:00,13.0,11.8,30.41,SW,221,0.0,0.0,95,0.00,,---,0.00,VWS V15.00,2015-03-01 09:45:00,
2015-03-01 03:50:00,12.9,11.7,30.40,SW,220,0.0,0.0,95,0.00,,---,0.00,VWS V15.00,2015-03-01 09:50:00,
2015-03-01 03:55:00,10.7,9.3,30.40,SW,221,0.0,0.0,94,0.00,,---,0.00,VWS V15.00,2015-03-01 09:55:00,
2015-03-01 04:00:00,11.4,10.0,30.40,SW,221,0.0,0.0,94,0.00,,---,0.00,VWS V15.00,2015-03-01 10:00:00,
2015-03-01 04:05:00,11.4,10.0,30.40,SW,221,0.0,0.0,94,0.00,,---,0.00,VWS V15.00,2015-03-01 10:05:00,
2015-03-01 04:10:00,11.4,10.0,30.40,SW,221,0.0,0.0,94,0.00,,---,0.00,VWS V15.00,2015-03-01 10:10:00,
2015-03-01 04:15:00,11.4,10.0,30.40,SW,221,0.0,0.0,94,0.00,,---,0.00,VWS V15.00,2015-03-01 10:15:00,
2015-03-01 04:20:00,11.4,10.0,30.40,SW,221,0.0,0.0,94,0.00,,---,0.00,VWS V15.00,2015-03-01 10:20:00,
2015-03-01 04:25:00,11.4,10.0,30.40,SW,221,0.0,0.0,94,0.00,,---,0.00,VWS V15.00,2015-03-01 10:25:00,
2015-03-01 04:30:00,11.4,10.0,30.39,SW,221,0.0,0.0,94,0.00,,---,0.00,VWS V15.00,2015-03-01 10:30:00,
2015-03-01 04:35:00,11.4,10.0,30.39,SW,221,0.0,0.0,94,0.00,,---,0.00,VWS V15.00,2015-03-01 10:35:00,
2015-03-01 04:40:00,11.4,10.0,30.38,SW,221,0.0,0.0,94,0.00,,---,0.00,VWS V15.00,2015-03-01 10:40:00,
2015-03-01 04:45:00,11.4,10.0,30.39,SW,221,0.0,0.0,94,0.00,,---,0.00,VWS V15.00,2015-03-01 10:45:00,
2015-03-01 04:51:00,11.4,10.0,30.39,SW,221,0.0,0.0,94,0.00,,---,0.00,VWS V15.00,2015-03-01 10:51:00,
2015-03-01 04:56:00,11.4,10.0,30.38,SW,221,0.0,0.0,94,0.00,,---,0.00,VWS V15.00,2015-03-01 10:56:00,
2015-03-01 05:01:00,11.4,10.0,30.38,SW,221,0.0,0.0,94,0.00,,---,0.00,VWS V15.00,2015-03-01 11:01:00,
2015-03-01 05:06:00,11.4,10.0,30.38,SW,221,0.0,0.0,94,0.00,,---,0.00,VWS V15.00,2015-03-01 11:06:00,
2015-03-01 05:11:00,11.4,10.0,30.38,SW,221,0.0,0.0,94,0.00,,---,0.00,VWS V15.00,2015-03-01 11:11:00,
2015-03-01 05:16:00,11.4,10.0,30.38,SW,221,0.0,0.0,94,0.00,,---,0.00,VWS V15.00,2015-03-01 11:16:00,
2015-03-01 05:21:00,11.4,10.0,30.38,SW,221,0.0,0.0,94,0.00,,---,0.00,VWS V15.00,2015-03-01 11:21:00,
2015-03-01 05:26:00,11.4,10.0,30.38,SW,221,0.0,0.0,94,0.00,,---,0.00,VWS V15.00,2015-03-01 11:26:00,
2015-03-01 05:31:00,11.4,10.0,30.37,SW,221,0.0,0.0,94,0.00,,---,0.00,VWS V15.00,2015-03-01 11:31:00,
2015-03-01 05:36:00,11.4,10.0,30.37,SW,221,0.0,0.0,94,0.00,,---,0.00,VWS V15.00,2015-03-01 11:36:00,
2015-03-01 05:41:00,11.4,10.0,30.37,SW,221,0.0,0.0,94,0.00,,---,0.00,VWS V15.00,2015-03-01 11:41:00,
2015-03-01 05:46:00,11.4,10.0,30.37,SW,221,0.0,0.0,94,0.00,,---,0.00,VWS V15.00,2015-03-01 11:46:00,
2015-03-01 05:51:00,11.4,10.0,30.37,SW,221,0.0,0.0,94,0.00,,---,0.00,VWS V15.00,2015-03-01 11:51:00,
2015-03-01 05:56:00,11.4,10.0,30.37,SW,221,0.0,0.0,94,0.00,,---,0.00,VWS V15.00,2015-03-01 11:56:00,
2015-03-01 06:01:00,11.4,10.0,30.36,SW,221,0.0,0.0,94,0.00,,---,0.00,VWS V15.00,2015-03-01 12:01:00,
2015-03-01 06:06:00,11.4,10.0,30.36,SW,221,0.0,0.0,94,0.00,,---,0.00,VWS V15.00,2015-03-01 12:06:00,
2015-03-01 06:11:00,11.4,10.0,30.36,SW,221,0.0,0.0,94,0.00,,---,0.00,VWS V15.00,2015-03-01 12:11:00,
2015-03-01 06:16:00,11.4,10.0,30.37,SW,221,0.0,0.0,94,0.00,,---,0.00,VWS V15.00,2015-03-01 12:16:00,
2015-03-01 06:21:00,11.4,10.0,30.37,SW,221,0.0,0.0,94,0.00,,---,0.00,VWS V15.00,2015-03-01 12:21:00,
2015-03-01 06:26:00,11.4,10.0,30.37,SW,221,0.0,0.0,94,0.00,,---,0.00,VWS V15.00,2015-03-01 12:26:00,
2015-03-01 06:31:00,11.4,10.0,30.36,SW,221,0.0,0.0,94,0.00,,---,0.00,VWS V15.00,2015-03-01 12:31:00,
2015-03-01 06:36:00,11.4,10.0,30.37,SW,221,0.0,0.0,94,0.00,,---,0.00,VWS V15.00,2015-03-01 12:36:00,
2015-03-01 06:41:00,11.4,10.0,30.36,SW,221,0.0,0.0,94,0.00,,---,0.00,VWS V15.00,2015-03-01 12:41:00,
2015-03-01 06:46:00,11.4,10.0,30.37,SW,221,0.0,0.0,94,0.00,,---,0.00,VWS V15.00,2015-03-01 12:46:00,
2015-03-01 06:51:00,11.4,10.0,30.37,SW,221,0.0,0.0,94,0.00,,---,0.00,VWS V15.00,2015-03-01 12:51:00,
2015-03-01 06:56:00,11.4,10.0,30.36,SW,221,0.0,0.0,94,0.00,,---,0.00,VWS V15.00,2015-03-01 12:56:00,
2015-03-01 07:01:00,11.4,10.0,30.36,SW,221,0.0,0.0,94,0.00,,---,0.00,VWS V15.00,2015-03-01 13:01:00,
2015-03-01 07:06:00,11.4,10.0,30.36,SW,221,0.0,0.0,94,0.00,,---,0.00,VWS V15.00,2015-03-01 13:06:00,
2015-03-01 07:11:00,11.4,10.0,30.37,SW,221,0.0,0.0,94,0.00,,---,0.00,VWS V15.00,2015-03-01 13:11:00,
2015-03-01 07:16:00,11.4,10.0,30.37,SW,221,0.0,0.0,94,0.00,,---,0.00,VWS V15.00,2015-03-01 13:16:00,
2015-03-01 07:21:00,11.4,10.0,30.38,SW,221,0.0,0.0,94,0.00,,---,0.00,VWS V15.00,2015-03-01 13:21:00,
2015-03-01 07:26:00,11.4,10.0,30.38,SW,221,0.0,0.0,94,0.00,,---,0.00,VWS V15.00,2015-03-01 13:26:00,
2015-03-01 07:31:00,12.0,10.8,30.38,SW,228,0.0,0.0,95,0.00,,---,0.00,VWS V15.00,2015-03-01 13:31:00,
2015-03-01 07:36:00,12.0,10.8,30.38,West,259,0.0,1.0,95,0.00,,---,0.00,VWS V15.00,2015-03-01 13:36:00,
2015-03-01 07:41:00,12.0,10.8,30.38,SW,220,0.0,1.0,95,0.00,,---,0.00,VWS V15.00,2015-03-01 13:41:00,
2015-03-01 07:46:00,12.1,10.9,30.38,SSW,209,0.0,1.0,95,0.00,,---,0.00,VWS V15.00,2015-03-01 13:46:00,
2015-03-01 07:51:00,12.1,10.9,30.38,SSW,200,0.0,1.0,95,0.00,,---,0.00,VWS V15.00,2015-03-01 13:51:00,
2015-03-01 07:56:00,12.1,10.7,30.37,SW,225,0.0,1.0,94,0.00,,---,0.00,VWS V15.00,2015-03-01 13:56:00,
2015-03-01 08:02:00,12.2,11.0,30.38,SSE,159,0.0,1.0,95,0.00,,---,0.00,VWS V15.00,2015-03-01 14:02:00,
2015-03-01 08:07:00,12.2,10.8,30.38,SW,224,0.0,1.0,94,0.00,,---,0.00,VWS V15.00,2015-03-01 14:07:00,
2015-03-01 08:12:00,12.4,11.2,30.37,SW,223,0.0,1.0,95,0.00,,---,0.00,VWS V15.00,2015-03-01 14:12:00,
2015-03-01 08:17:00,12.9,11.7,30.38,SW,223,0.0,1.0,95,0.00,,---,0.00,VWS V15.00,2015-03-01 14:17:00,
2015-03-01 08:22:00,13.1,11.9,30.37,SW,224,0.0,1.0,95,0.00,,---,0.00,VWS V15.00,2015-03-01 14:22:00,
2015-03-01 08:27:00,14.1,13.2,30.37,SE,146,0.0,1.0,96,0.00,,---,0.00,VWS V15.00,2015-03-01 14:27:00,
2015-03-01 08:32:00,14.8,13.6,30.37,ESE,105,0.0,0.0,95,0.00,,---,0.00,VWS V15.00,2015-03-01 14:32:00,
2015-03-01 08:37:00,15.2,14.0,30.37,ESE,106,0.0,0.0,95,0.00,,---,0.00,VWS V15.00,2015-03-01 14:37:00,
2015-03-01 08:42:00,15.9,15.0,30.37,ESE,105,0.0,0.0,96,0.00,,---,0.00,VWS V15.00,2015-03-01 14:42:00,
2015-03-01 08:47:00,16.4,15.2,30.37,ESE,105,0.0,0.0,95,0.00,,---,0.00,VWS V15.00,2015-03-01 14:47:00,
2015-03-01 08:52:00,16.4,15.0,30.37,West,277,0.0,0.0,94,0.00,,---,0.00,VWS V15.00,2015-03-01 14:52:00,
2015-03-01 08:57:00,16.5,15.1,30.37,WNW,290,0.0,0.0,94,0.00,,---,0.00,VWS V15.00,2015-03-01 14:57:00,
2015-03-01 09:02:00,16.4,15.0,30.37,WSW,257,0.0,1.0,94,0.00,,---,0.00,VWS V15.00,2015-03-01 15:02:00,
2015-03-01 09:07:00,16.0,14.3,30.37,West,281,3.0,3.0,93,0.00,,---,0.00,VWS V15.00,2015-03-01 15:07:00,
2015-03-01 09:12:00,15.6,13.9,30.37,West,277,2.0,4.0,93,0.00,,---,0.00,VWS V15.00,2015-03-01 15:12:00,
2015-03-01 09:17:00,15.5,14.1,30.37,West,263,2.0,4.0,94,0.00,,---,0.00,VWS V15.00,2015-03-01 15:17:00,
2015-03-01 09:22:00,15.3,13.6,30.37,WSW,257,3.0,4.0,93,0.00,,---,0.00,VWS V15.00,2015-03-01 15:22:00,
2015-03-01 09:27:00,15.4,14.0,30.37,WSW,242,0.0,4.0,94,0.00,,---,0.00,VWS V15.00,2015-03-01 15:27:00,
2015-03-01 09:32:00,15.8,14.4,30.38,SW,231,1.0,2.0,94,0.00,,---,0.00,VWS V15.00,2015-03-01 15:32:00,
2015-03-01 09:37:00,16.1,14.7,30.37,SW,236,0.0,2.0,94,0.00,,---,0.00,VWS V15.00,2015-03-01 15:37:00,
2015-03-01 09:42:00,16.6,15.2,30.37,West,261,0.0,3.0,94,0.00,,---,0.00,VWS V15.00,2015-03-01 15:42:00,
2015-03-01 09:47:00,16.8,15.1,30.37,West,259,5.0,5.0,93,0.00,,---,0.00,VWS V15.00,2015-03-01 15:47:00,
2015-03-01 09:52:00,17.1,15.2,30.37,SW,232,0.0,6.0,92,0.00,,---,0.00,VWS V15.00,2015-03-01 15:52:00,
2015-03-01 09:57:00,17.6,15.7,30.37,WSW,238,0.0,6.0,92,0.00,,---,0.00,VWS V15.00,2015-03-01 15:57:00,
2015-03-01 10:02:00,18.0,15.6,30.36,West,266,4.0,4.0,90,0.00,,---,0.00,VWS V15.00,2015-03-01 16:02:00,
2015-03-01 10:07:00,18.3,15.9,30.37,West,275,0.0,4.0,90,0.00,,---,0.00,VWS V15.00,2015-03-01 16:07:00,
2015-03-01 10:12:00,18.4,15.7,30.37,West,271,0.0,5.0,89,0.00,,---,0.00,VWS V15.00,2015-03-01 16:12:00,
2015-03-01 10:17:00,18.7,16.0,30.37,West,277,4.0,5.0,89,0.00,,---,0.00,VWS V15.00,2015-03-01 16:17:00,
2015-03-01 10:22:00,18.7,15.7,30.37,West,271,4.0,6.0,88,0.00,,---,0.00,VWS V15.00,2015-03-01 16:22:00,
2015-03-01 10:27:00,19.1,16.1,30.37,SW,226,4.0,6.0,88,0.00,,---,0.00,VWS V15.00,2015-03-01 16:27:00,
2015-03-01 10:32:00,19.7,16.7,30.37,SW,217,0.0,3.0,88,0.00,,---,0.00,VWS V15.00,2015-03-01 16:32:00,
2015-03-01 10:37:00,20.0,16.5,30.37,West,260,4.0,5.0,86,0.00,,---,0.00,VWS V15.00,2015-03-01 16:37:00,
2015-03-01 10:42:00,20.9,17.6,30.37,SSW,194,0.0,5.0,87,0.00,,---,0.00,VWS V15.00,2015-03-01 16:42:00,
2015-03-01 10:47:00,22.2,18.1,30.36,SSW,194,1.0,5.0,84,0.00,,---,0.00,VWS V15.00,2015-03-01 16:47:00,
2015-03-01 10:52:00,23.1,18.4,30.36,SSW,210,2.0,5.0,82,0.00,,---,0.00,VWS V15.00,2015-03-01 16:52:00,
2015-03-01 10:57:00,23.2,18.0,30.36,WSW,242,2.0,6.0,80,0.00,,---,0.00,VWS V15.00,2015-03-01 16:57:00,
2015-03-01 11:02:00,23.4,18.4,30.36,WSW,246,3.0,6.0,81,0.00,,---,0.00,VWS V15.00,2015-03-01 17:02:00,
2015-03-01 11:07:00,23.3,18.1,30.36,WSW,256,2.0,6.0,80,0.00,,---,0.00,VWS V15.00,2015-03-01 17:07:00,
2015-03-01 11:12:00,23.9,18.6,30.36,SSW,212,1.0,6.0,80,0.00,,---,0.00,VWS V15.00,2015-03-01 17:12:00,
2015-03-01 11:17:00,24.2,18.9,30.36,SW,233,1.0,6.0,80,0.00,,---,0.00,VWS V15.00,2015-03-01 17:17:00,
2015-03-01 11:22:00,23.9,18.4,30.36,West,267,5.0,6.0,79,0.00,,---,0.00,VWS V15.00,2015-03-01 17:22:00,
2015-03-01 11:27:00,24.2,18.6,30.36,West,280,2.0,6.0,79,0.00,,---,0.00,VWS V15.00,2015-03-01 17:27:00,
2015-03-01 11:32:00,24.4,18.5,30.36,West,260,5.0,9.0,78,0.00,,---,0.00,VWS V15.00,2015-03-01 17:32:00,
2015-03-01 11:37:00,24.4,19.1,30.36,WSW,257,3.0,9.0,80,0.00,,---,0.00,VWS V15.00,2015-03-01 17:37:00,
2015-03-01 11:42:00,25.0,19.1,30.35,West,271,2.0,9.0,78,0.00,,---,0.00,VWS V15.00,2015-03-01 17:42:00,
2015-03-01 11:47:00,25.0,19.1,30.35,WSW,252,5.0,9.0,78,0.00,,---,0.00,VWS V15.00,2015-03-01 17:47:00,
2015-03-01 11:52:00,24.5,18.9,30.34,WSW,248,2.0,9.0,79,0.00,,---,0.00,VWS V15.00,2015-03-01 17:52:00,
2015-03-01 11:57:00,24.5,18.6,30.34,SSW,197,4.0,9.0,78,0.00,,---,0.00,VWS V15.00,2015-03-01 17:57:00,
2015-03-01 12:02:00,25.0,19.1,30.34,SW,222,3.0,11.0,78,0.00,,---,0.00,VWS V15.00,2015-03-01 18:02:00,
2015-03-01 12:07:00,25.3,18.8,30.33,West,280,7.0,11.0,76,0.00,,---,0.00,VWS V15.00,2015-03-01 18:07:00,
2015-03-01 12:12:00,24.9,18.4,30.33,West,267,6.0,11.0,76,0.00,,---,0.00,VWS V15.00,2015-03-01 18:12:00,
2015-03-01 12:18:00,24.9,18.4,30.33,West,266,9.0,11.0,76,0.00,,---,0.00,VWS V15.00,2015-03-01 18:18:00,
2015-03-01 12:23:00,25.0,18.8,30.33,SW,219,7.0,11.0,77,0.00,,---,0.00,VWS V15.00,2015-03-01 18:23:00,
2015-03-01 12:28:00,25.4,19.2,30.32,West,273,6.0,11.0,77,0.00,,---,0.00,VWS V15.00,2015-03-01 18:28:00,
2015-03-01 12:33:00,25.9,19.4,30.32,WNW,284,4.0,8.0,76,0.00,,---,0.00,VWS V15.00,2015-03-01 18:33:00,
2015-03-01 12:38:00,26.0,19.2,30.32,SW,231,3.0,8.0,75,0.00,,---,0.00,VWS V15.00,2015-03-01 18:38:00,
2015-03-01 12:43:00,25.9,19.4,30.32,West,260,6.0,11.0,76,0.00,,---,0.00,VWS V15.00,2015-03-01 18:43:00,
2015-03-01 12:48:00,25.7,19.2,30.32,SW,236,5.0,11.0,76,0.00,,---,0.00,VWS V15.00,2015-03-01 18:48:00,
2015-03-01 12:53:00,25.7,19.2,30.32,WSW,249,7.0,11.0,76,0.00,,---,0.00,VWS V15.00,2015-03-01 18:53:00,
2015-03-01 12:58:00,25.8,19.3,30.32,SW,217,2.0,12.0,76,0.00,,---,0.00,VWS V15.00,2015-03-01 18:58:00,
2015-03-01 13:03:00,26.1,19.6,30.32,WSW,245,4.0,11.0,76,0.00,,---,0.00,VWS V15.00,2015-03-01 19:03:00,
2015-03-01 13:08:00,26.1,19.3,30.32,West,273,4.0,11.0,75,0.00,,---,0.00,VWS V15.00,2015-03-01 19:08:00,
2015-03-01 13:13:00,26.1,19.6,30.32,WSW,254,6.0,12.0,76,0.00,,---,0.00,VWS V15.00,2015-03-01 19:13:00,
2015-03-01 13:18:00,26.2,19.7,30.32,SW,228,7.0,12.0,76,0.00,,---,0.00,VWS V15.00,2015-03-01 19:18:00,
2015-03-01 13:23:00,26.3,19.5,30.31,WSW,248,10.0,12.0,75,0.00,,---,0.00,VWS V15.00,2015-03-01 19:23:00,
2015-03-01 13:28:00,26.4,19.6,30.30,WSW,250,10.0,12.0,75,0.00,,---,0.00,VWS V15.00,2015-03-01 19:28:00,
2015-03-01 13:33:00,26.9,19.7,30.30,West,269,6.0,9.0,74,0.00,,---,0.00,VWS V15.00,2015-03-01 19:33:00,
2015-03-01 13:38:00,26.8,19.6,30.29,SW,226,4.0,11.0,74,0.00,,---,0.00,VWS V15.00,2015-03-01 19:38:00,
2015-03-01 13:43:00,26.6,19.8,30.30,SW,224,0.0,11.0,75,0.00,,---,0.00,VWS V15.00,2015-03-01 19:43:00,
2015-03-01 13:48:00,26.5,19.7,30.29,SW,233,6.0,13.0,75,0.00,,---,0.00,VWS V15.00,2015-03-01 19:48:00,
2015-03-01 13:53:00,26.7,19.9,30.29,WSW,255,5.0,13.0,75,0.00,,---,0.00,VWS V15.00,2015-03-01 19:53:00,
2015-03-01 13:58:00,26.9,20.4,30.29,WSW,256,4.0,13.0,76,0.00,,---,0.00,VWS V15.00,2015-03-01 19:58:00,
2015-03-01 14:03:00,27.2,20.0,30.29,WSW,240,10.0,13.0,74,0.00,,---,0.00,VWS V15.00,2015-03-01 20:03:00,
2015-03-01 14:08:00,26.9,19.7,30.29,West,260,9.0,13.0,74,0.00,,---,0.00,VWS V15.00,2015-03-01 20:08:00,
2015-03-01 14:13:00,26.9,19.7,30.29,SW,233,10.0,13.0,74,0.00,,---,0.00,VWS V15.00,2015-03-01 20:13:00,
2015-03-01 14:18:00,26.6,19.8,30.29,SSW,207,6.0,13.0,75,0.00,,---,0.00,VWS V15.00,2015-03-01 20:18:00,
2015-03-01 14:23:00,26.7,20.2,30.29,WSW,250,13.0,13.0,76,0.00,,---,0.00,VWS V15.00,2015-03-01 20:23:00,
2015-03-01 14:28:00,27.1,20.2,30.29,SW,236,7.0,16.0,75,0.00,,---,0.00,VWS V15.00,2015-03-01 20:28:00,
2015-03-01 14:33:00,26.7,19.9,30.29,WSW,243,11.0,15.0,75,0.00,,---,0.00,VWS V15.00,2015-03-01 20:33:00,
2015-03-01 14:38:00,26.5,20.0,30.29,WSW,242,4.0,15.0,76,0.00,,---,0.00,VWS V15.00,2015-03-01 20:38:00,
2015-03-01 14:43:00,26.9,20.4,30.29,WSW,249,7.0,15.0,76,0.00,,---,0.00,VWS V15.00,2015-03-01 20:43:00,
2015-03-01 14:48:00,27.3,20.4,30.29,West,266,4.0,15.0,75,0.00,,---,0.00,VWS V15.00,2015-03-01 20:48:00,
2015-03-01 14:53:00,27.3,20.4,30.28,West,276,8.0,16.0,75,0.00,,---,0.00,VWS V15.00,2015-03-01 20:53:00,
2015-03-01 14:58:00,27.5,20.6,30.28,WSW,257,7.0,16.0,75,0.00,,---,0.00,VWS V15.00,2015-03-01 20:58:00,
2015-03-01 15:03:00,27.6,20.7,30.29,West,269,6.0,11.0,75,0.00,,---,0.00,VWS V15.00,2015-03-01 21:03:00,
2015-03-01 15:08:00,27.6,20.7,30.29,WSW,252,4.0,14.0,75,0.00,,---,0.00,VWS V15.00,2015-03-01 21:08:00,
2015-03-01 15:13:00,27.5,20.6,30.29,West,264,12.0,14.0,75,0.00,,---,0.00,VWS V15.00,2015-03-01 21:13:00,
2015-03-01 15:18:00,27.4,20.5,30.29,West,259,15.0,16.0,75,0.00,,---,0.00,VWS V15.00,2015-03-01 21:18:00,
2015-03-01 15:23:00,27.2,20.3,30.29,West,262,9.0,16.0,75,0.00,,---,0.00,VWS V15.00,2015-03-01 21:23:00,
2015-03-01 15:28:00,27.5,20.6,30.29,WSW,248,6.0,16.0,75,0.00,,---,0.00,VWS V15.00,2015-03-01 21:28:00,
2015-03-01 15:33:00,27.9,20.7,30.28,West,271,8.0,11.0,74,0.00,,---,0.00,VWS V15.00,2015-03-01 21:33:00,
2015-03-01 15:38:00,28.0,21.1,30.28,WSW,247,4.0,16.0,75,0.00,,---,0.00,VWS V15.00,2015-03-01 21:38:00,
2015-03-01 15:43:00,28.1,20.9,30.28,WSW,255,6.0,16.0,74,0.00,,---,0.00,VWS V15.00,2015-03-01 21:43:00,
2015-03-01 15:48:00,27.8,20.6,30.29,WSW,239,8.0,17.0,74,0.00,,---,0.00,VWS V15.00,2015-03-01 21:48:00,
2015-03-01 15:53:00,27.7,20.5,30.28,SSW,211,8.0,17.0,74,0.00,,---,0.00,VWS V15.00,2015-03-01 21:53:00,